sat.trackr.live / text

‹ back to catalog

QIANFAN-23

NORAD 61556 · 2024-185E

PAYLOAD ACTIVE UNKNOWN

§ Identity

Operator
Country
PRC
Launch date
2024-10-15
Launch site
TAISC
Launch vehicle
Mass (kg)
RCS (m²)

External: N2YO · Heavens-Above · Gunter

§ Orbital elements

Epoch: 2026-09-22T19:57:34.165152Z

Period
101.66 min
Inclination
88.9853°
Eccentricity
0.0009410
Mean motion
14.16554465 rev/d
Perigee alt
830.2 km
Apogee alt
843.8 km
Semi-major
7,215.2 km
B*
1.0975e-4
RAAN
45.0725°
Arg perigee
115.3123°
Mean anomaly
244.9041°
Rev number
10,996

§ Raw data

QIANFAN-231 61556U 24185E   26265.83164543  .00000233  00000+0  10975-3 0  99902 61556  88.9853  45.0725 0009410 115.3123 244.9041 14.16554465109969

JSON: /api/v1/satellites/61556 · /tle

For live sub-satellite position, see the globe view (requires WebGL).

§ Visibility from observer

Set your observer location to see the next 7 days of passes ≥ 10°. The values pass through the URL so the page stays shareable.

No JS? Fill the form by hand. The geolocation button needs JavaScript.